FW7647 Weather Reports


Display with metric or nautical units.
time (UTC)temp
F
wind
direction
speed
MPH
gust
MPH
rain 1hr
in
rain 24hr
in
rain mn
in
humidity
%
barometer
mb
20260506185053 81 174 12.0 21.0 0.00 0.00 0.00 67 1015.2
20260506184550 81 175 15.0 21.0 0.00 0.00 0.00 67 1015.2
20260506184047 81 182 13.0 21.0 0.00 0.00 0.00 66 1015.2
20260506183543 81 168 16.0 21.0 0.00 0.00 0.00 66 1015.2
20260506183035 81 184 15.0 23.0 0.00 0.00 0.00 66 1015.2
20260506182532 81 188 15.0 23.0 0.00 0.00 0.00 66 1015.2
20260506182029 81 180 15.0 23.0 0.00 0.00 0.00 65 1015.2
20260506181527 81 189 14.0 21.0 0.00 0.00 0.00 65 1015.5
20260506181024 82 156 14.0 21.0 0.00 0.00 0.00 65 1015.5
20260506180520 82 189 13.0 21.0 0.00 0.00 0.00 64 1015.2
20260506180017 82 187 14.0 17.0 0.00 0.00 0.00 63 1015.5
20260506175513 83 157 10.0 17.0 0.00 0.00 0.00 63 1015.5
20260506175010 83 159 10.0 20.0 0.00 0.00 0.00 62 1015.5
20260506174508 84 155 10.0 20.0 0.00 0.00 0.00 60 1015.9
20260506174004 84 202 8.0 14.0 0.00 0.00 0.00 61 1015.5
20260506173502 84 185 8.0 14.0 0.00 0.00 0.00 61 1015.5
20260506172959 84 152 5.0 14.0 0.00 0.00 0.00 59 1016.2
20260506172456 85 184 8.0 13.0 0.00 0.00 0.00 59 1015.9
20260506171952 85 172 8.0 11.0 0.00 0.00 0.00 54 1016.6
20260506171450 85 174 5.0 11.0 0.00 0.00 0.00 55 1016.2
20260506170947 84 163 2.0 14.0 0.00 0.00 0.00 51 1016.2
20260506170443 84 180 8.0 14.0 0.00 0.00 0.00 59 1016.2
20260506165936 85 164 6.0 15.0 0.00 0.00 0.00 57 1016.6
20260506165434 84 257 3.0 15.0 0.00 0.00 0.00 52 1016.6
20260506164929 84 179 11.0 14.0 0.00 0.00 0.00 54 1016.6
20260506164426 84 249 6.0 15.0 0.00 0.00 0.00 53 1016.6
20260506163919 84 215 8.0 15.0 0.00 0.00 0.00 53 1016.6
20260506163414 84 222 5.0 14.0 0.00 0.00 0.00 54 1016.6
20260506162909 84 215 9.0 14.0 0.00 0.00 0.00 54 1016.6
20260506162407 83 158 2.0 13.0 0.00 0.00 0.00 54 1016.9
20260506161904 83 176 7.0 13.0 0.00 0.00 0.00 55 1016.6
20260506161402 83 157 5.0 11.0 0.00 0.00 0.00 54 1016.6
20260506160859 82 330 0.0 13.0 0.00 0.00 0.00 56 1016.9
20260506160356 82 194 9.0 13.0 0.00 0.00 0.00 56 1016.6
20260506155854 82 286 4.0 10.0 0.00 0.00 0.00 55 1017.2
20260506155350 82 165 7.0 8.0 0.00 0.00 0.00 56 1016.9
20260506153508 81 165 2.0 8.0 0.00 0.00 0.00 57 1016.9
20260506153005 80 148 3.0 8.0 0.00 0.00 0.00 58 1017.2
20260506152502 80 80 2.0 11.0 0.00 0.00 0.00 59 1016.9
20260506152000 80 211 5.0 11.0 0.00 0.00 0.00 60 1017.2
20260506151458 80 174 5.0 9.0 0.00 0.00 0.00 59 1017.2
20260506150955 80 174 5.0 9.0 0.00 0.00 0.00 59 1017.2
20260506150450 79 264 3.0 10.0 0.00 0.00 0.00 59 1017.2
20260506145948 80 171 3.0 11.0 0.00 0.00 0.00 59 1017.2
20260506145444 80 189 9.0 11.0 0.00 0.00 0.00 60 1016.9
20260506144942 79 310 2.0 13.0 0.00 0.00 0.00 60 1016.6
20260506144438 79 274 2.0 13.0 0.00 0.00 0.00 61 1016.9
20260506143937 78 133 3.0 7.0 0.00 0.00 0.00 61 1016.9
20260506143433 78 119 0.0 7.0 0.00 0.00 0.00 61 1016.9
20260506142932 78 96 2.0 10.0 0.00 0.00 0.00 61 1016.6
20260506142429 78 324 3.0 10.0 0.00 0.00 0.00 62 1016.6
20260506141927 77 179 4.0 9.0 0.00 0.00 0.00 61 1016.6
20260506141425 77 255 3.0 10.0 0.00 0.00 0.00 63 1016.6
20260506140923 77 212 4.0 10.0 0.00 0.00 0.00 62 1016.6
20260506140420 77 117 0.0 7.0 0.00 0.00 0.00 63 1016.9
20260506135916 77 227 2.0 8.0 0.00 0.00 0.00 64 1016.9
20260506135414 76 166 3.0 10.0 0.00 0.00 0.00 64 1016.6
20260506134910 76 284 1.0 10.0 0.00 0.00 0.00 65 1016.9
20260506134406 76 261 2.0 9.0 0.00 0.00 0.00 66 1016.6
20260506133903 76 127 1.0 9.0 0.00 0.00 0.00 67 1016.6
20260506133400 76 181 3.0 10.0 0.00 0.00 0.00 68 1016.6
20260506132856 75 287 5.0 10.0 0.00 0.00 0.00 69 1016.2
20260506132353 75 132 3.0 14.0 0.00 0.00 0.00 70 1016.2
20260506131852 75 184 7.0 14.0 0.00 0.00 0.00 71 1016.2
20260506131348 74 143 2.0 10.0 0.00 0.00 0.00 71 1016.6
20260506130845 75 267 2.0 10.0 0.00 0.00 0.00 72 1016.2
20260506130341 74 222 5.0 7.0 0.00 0.00 0.00 74 1016.2
20260506125839 74 245 5.0 15.0 0.00 0.00 0.00 75 1016.6
20260506125337 74 145 2.0 15.0 0.00 0.00 0.00 76 1016.6
20260506124835 73 202 3.0 8.0 0.00 0.00 0.00 77 1016.2
20260506124332 73 17 1.0 7.0 0.00 0.00 0.00 79 1016.6
20260506123830 72 108 3.0 6.0 0.00 0.00 0.00 82 1016.2
20260506123328 72 113 1.0 6.0 0.00 0.00 0.00 84 1016.6
20260506122825 72 125 3.0 7.0 0.00 0.00 0.00 86 1016.2
20260506122322 71 176 3.0 7.0 0.00 0.00 0.00 87 1016.2
20260506121820 71 16 1.0 8.0 0.00 0.00 0.00 88 1015.9
20260506121317 71 125 1.0 8.0 0.00 0.00 0.00 89 1016.2
20260506120814 70 162 2.0 5.0 0.00 0.00 0.00 89 1016.2
20260506120312 70 94 1.0 5.0 0.00 0.00 0.00 90 1016.6
20260506115809 69 111 1.0 6.0 0.00 0.00 0.00 91 1016.2
20260506115307 68 171 4.0 6.0 0.00 0.00 0.00 91 1016.2
20260506114804 68 112 1.0 3.0 0.00 0.00 0.00 91 1016.2
20260506114302 67 109 0.0 2.0 0.00 0.00 0.00 92 1016.2
20260506113800 67 109 0.0 1.0 0.00 0.00 0.00 92 1015.9
20260506113258 67 108 0.0 1.0 0.00 0.00 0.00 92 1015.9
20260506112754 66 99 0.0 1.0 0.00 0.00 0.00 93 1015.9
20260506112252 66 100 0.0 1.0 0.00 0.00 0.00 93 1015.9
20260506111749 65 100 0.0 1.0 0.00 0.00 0.00 92 1015.5
20260506111247 65 100 0.0 1.0 0.00 0.00 0.00 92 1015.9
20260506110743 64 100 0.0 1.0 0.00 0.00 0.00 92 1015.5
20260506110241 64 100 0.0 0.0 0.00 0.00 0.00 92 1015.5
20260506105737 64 100 0.0 0.0 0.00 0.00 0.00 92 1015.5
20260506105234 64 114 0.0 0.0 0.00 0.00 0.00 92 1015.5
20260506104732 64 114 0.0 0.0 0.00 0.00 0.00 92 1015.5
20260506104230 64 114 0.0 0.0 0.00 0.00 0.00 92 1015.5
20260506103727 64 114 0.0 0.0 0.00 0.00 0.00 92 1015.5
20260506103224 64 114 0.0 0.0 0.00 0.00 0.00 91 1015.5
20260506102722 64 114 0.0 0.0 0.00 0.00 0.00 91 1015.5
20260506102220 64 114 0.0 0.0 0.00 0.00 0.00 91 1015.5
20260506101716 64 114 0.0 0.0 0.00 0.00 0.00 91 1015.5
20260506101212 64 114 0.0 0.0 0.00 0.00 0.00 91 1015.5
20260506100711 64 114 0.0 0.0 0.00 0.00 0.00 91 1015.5
20260506100208 65 114 0.0 0.0 0.00 0.00 0.00 91 1015.5
20260506095707 65 114 0.0 0.0 0.00 0.00 0.00 91 1015.5
20260506095203 65 114 0.0 0.0 0.00 0.00 0.00 91 1015.5
20260506094700 65 114 0.0 0.0 0.00 0.00 0.00 90 1015.5
20260506094158 65 114 0.0 0.0 0.00 0.00 0.00 90 1015.5
20260506093657 65 114 0.0 0.0 0.00 0.00 0.00 90 1015.5
20260506093153 65 114 0.0 0.0 0.00 0.00 0.00 90 1015.5
20260506092651 65 114 0.0 0.0 0.00 0.00 0.00 90 1015.5
20260506092148 65 114 0.0 0.0 0.00 0.00 0.00 90 1015.5
20260506091646 66 114 0.0 0.0 0.00 0.00 0.00 90 1015.2
20260506091143 66 114 0.0 0.0 0.00 0.00 0.00 90 1015.5
20260506090641 66 114 0.0 0.0 0.00 0.00 0.00 90 1015.5
20260506090137 66 114 0.0 0.0 0.00 0.00 0.00 89 1015.5
20260506085634 66 114 0.0 0.0 0.00 0.00 0.00 89 1015.2
20260506085131 66 114 0.0 1.0 0.00 0.00 0.00 89 1015.2
20260506084627 66 114 0.0 1.0 0.00 0.00 0.00 89 1015.2
20260506084124 66 113 0.0 1.0 0.00 0.00 0.00 89 1015.2
20260506083621 66 113 0.0 1.0 0.00 0.00 0.00 89 1015.2
20260506083119 66 112 0.0 2.0 0.00 0.00 0.00 89 1015.2
20260506082615 66 113 0.0 2.0 0.00 0.00 0.00 89 1015.2
20260506082111 67 118 0.0 2.0 0.00 0.00 0.00 88 1015.2
20260506081610 67 111 1.0 1.0 0.00 0.00 0.00 88 1015.2
20260506081107 67 109 0.0 1.0 0.00 0.00 0.00 88 1015.2
20260506080604 67 108 0.0 1.0 0.00 0.00 0.00 88 1015.2
20260506073044 67 112 0.0 2.0 0.00 0.00 0.00 87 1015.2
20260506072541 67 121 0.0 1.0 0.00 0.00 0.00 87 1015.2
20260506072039 67 117 0.0 2.0 0.00 0.00 0.00 87 1015.2
20260506071537 67 117 0.0 2.0 0.00 0.00 0.00 87 1015.5
20260506071034 67 109 0.0 3.0 0.00 0.00 0.00 87 1015.5
20260506070531 68 132 2.0 3.0 0.00 0.00 0.00 86 1015.2
20260506062509 68 129 2.0 3.0 0.00 0.00 0.00 84 1015.9
20260506062005 68 131 2.0 5.0 0.00 0.00 0.00 84 1015.9
20260506061501 68 130 2.0 5.0 0.00 0.00 0.00 84 1015.5
20260506060959 68 149 2.0 6.0 0.00 0.00 0.00 83 1015.9
20260506060457 68 137 2.0 6.0 0.00 0.00 0.00 83 1015.9
20260506050926 68 154 2.0 11.0 0.00 0.00 0.00 79 1016.2
20260506050424 69 218 6.0 15.0 0.00 0.00 0.00 79 1016.2
20260506044914 69 169 8.0 10.0 0.00 0.00 0.00 78 1015.9
20260506044412 69 181 6.0 11.0 0.00 0.00 0.00 78 1016.2
20260506043909 69 163 7.0 11.0 0.00 0.00 0.00 77 1016.2
20260506043406 69 176 6.0 11.0 0.00 0.00 0.00 76 1016.2
20260506042904 69 172 6.0 11.0 0.00 0.00 0.00 76 1016.2
20260506042403 70 173 7.0 13.0 0.00 0.00 0.00 75 1016.2
20260506041901 70 175 8.0 13.0 0.00 0.00 0.00 75 1016.2
20260506041358 70 168 6.0 16.0 0.00 0.00 0.00 75 1016.2
20260506040855 70 185 9.0 16.0 0.00 0.00 0.00 74 1016.6
20260506040352 70 168 8.0 15.0 0.00 0.00 0.00 74 1016.2
20260506035848 70 161 8.0 14.0 0.00 0.00 0.00 74 1016.6
20260506035346 70 170 9.0 14.0 0.00 0.00 0.00 74 1016.2
20260506034843 70 166 8.0 14.0 0.00 0.00 0.00 73 1016.6
20260506034340 70 181 9.0 13.0 0.00 0.00 0.00 73 1016.6
20260506033837 70 181 10.0 14.0 0.00 0.00 0.00 73 1016.6
20260506033334 69 181 9.0 14.0 0.00 0.00 0.00 73 1016.6
20260506032831 69 184 10.0 13.0 0.00 0.00 0.00 73 1016.6
20260506032328 69 182 7.0 13.0 0.00 0.00 0.00 72 1016.6
20260506031825 69 164 7.0 16.0 0.00 0.00 0.00 72 1016.6
20260506031322 69 188 8.0 16.0 0.00 0.00 0.00 72 1016.6
20260506030819 69 171 9.0 13.0 0.00 0.00 0.00 72 1016.2
20260506030317 69 147 11.0 11.0 0.00 0.00 0.00 72 1016.2
20260506025814 69 164 9.0 14.0 0.00 0.00 0.00 72 1016.6
20260506025311 69 187 9.0 14.0 0.00 0.00 0.00 72 1016.6
20260506024808 69 169 9.0 13.0 0.00 0.00 0.00 72 1016.6
20260506024304 69 164 7.0 11.0 0.00 0.00 0.00 73 1016.2
20260506023800 69 150 9.0 11.0 0.00 0.00 0.00 73 1016.6
20260506023258 69 154 8.0 10.0 0.00 0.00 0.00 73 1016.2
20260506022754 69 150 4.0 10.0 0.00 0.00 0.00 73 1016.2
20260506022252 69 170 6.0 9.0 0.00 0.00 0.00 73 1016.6
20260506021750 68 156 5.0 10.0 0.00 0.00 0.00 73 1016.2
20260506021247 68 170 8.0 11.0 0.00 0.00 0.00 72 1016.2
20260506020743 68 135 5.0 11.0 0.00 0.00 0.00 72 1016.2
20260506020241 69 160 4.0 10.0 0.00 0.00 0.00 72 1016.2
20260506015738 69 159 5.0 10.0 0.00 0.00 0.00 72 1015.9
20260506015236 68 157 6.0 10.0 0.00 0.00 0.00 72 1015.9
20260506014732 68 139 6.0 10.0 0.00 0.00 0.00 72 1015.9
20260506014229 68 132 5.0 10.0 0.00 0.00 0.00 72 1015.9
20260506013726 68 167 5.0 11.0 0.00 0.00 0.00 72 1015.9
20260506013223 68 162 6.0 11.0 0.00 0.00 0.00 72 1016.2
20260506012719 68 163 4.0 10.0 0.00 0.00 0.00 72 1016.2
20260506012217 68 159 6.0 10.0 0.00 0.00 0.00 72 1016.2
20260506011714 68 171 5.0 9.0 0.00 0.00 0.00 72 1016.2
20260506011210 68 160 4.0 9.0 0.00 0.00 0.00 71 1016.2
20260506010709 68 165 5.0 9.0 0.00 0.00 0.00 71 1015.9
20260506010206 68 161 7.0 9.0 0.00 0.00 0.00 71 1015.9
20260506005702 68 147 7.0 7.0 0.00 0.00 0.00 71 1016.2
20260506005159 68 156 5.0 7.0 0.00 0.00 0.00 71 1015.9
20260506004655 68 150 4.0 8.0 0.00 0.00 0.00 70 1015.5
20260506004153 69 145 4.0 8.0 0.00 0.00 0.00 70 1015.9
20260506003649 69 132 6.0 9.0 0.00 0.00 0.00 69 1015.5
20260506003145 69 153 4.0 13.0 0.00 0.00 0.00 69 1015.9
20260506002641 69 151 6.0 13.0 0.00 0.00 0.00 69 1015.5
20260506002138 69 129 4.0 13.0 0.00 0.00 0.00 68 1015.5
20260506001633 69 107 7.0 14.0 0.00 0.00 0.00 68 1015.5
20260506001131 69 163 7.0 14.0 0.00 0.00 0.00 68 1015.5
20260506000628 69 145 6.0 11.0 0.00 0.00 0.00 68 1015.5
20260506000125 70 154 6.0 11.0 0.00 0.00 0.00 67 1015.5
20260505235623 70 163 6.0 13.0 0.00 0.00 0.00 67 1015.5
20260505235120 70 167 6.0 14.0 0.00 0.00 0.00 67 1015.5
20260505234617 70 154 7.0 16.0 0.00 0.00 0.00 66 1015.9
20260505234114 71 169 12.0 16.0 0.00 0.00 0.00 66 1015.5
20260505233611 71 206 9.0 15.0 0.00 0.00 0.00 65 1015.5
20260505233109 71 148 8.0 15.0 0.00 0.00 0.00 65 1015.5
20260505232606 71 164 12.0 15.0 0.00 0.00 0.00 64 1015.5
20260505232104 71 157 7.0 16.0 0.00 0.00 0.00 63 1015.5
20260505231600 71 161 10.0 16.0 0.00 0.00 0.00 62 1015.5
20260505231059 72 173 8.0 15.0 0.00 0.00 0.00 62 1015.9
20260505230556 72 182 5.0 17.0 0.00 0.00 0.00 61 1015.9
20260505230052 72 170 12.0 20.0 0.00 0.00 0.00 59 1015.9
20260505225549 72 180 9.0 20.0 0.00 0.00 0.00 58 1015.9
20260505225045 72 187 11.0 15.0 0.00 0.00 0.00 59 1015.5
20260505224542 73 147 10.0 15.0 0.00 0.00 0.00 58 1015.5
20260505224040 73 141 8.0 17.0 0.00 0.00 0.00 57 1015.5
20260505223537 74 179 7.0 17.0 0.00 0.00 0.00 55 1015.5
20260505223033 75 183 13.0 17.0 0.00 0.00 0.00 55 1015.9
20260505222529 75 133 8.0 18.0 0.00 0.00 0.00 56 1015.5
20260505222025 74 152 12.0 18.0 0.00 0.00 0.00 57 1015.5
20260505221523 74 177 12.0 18.0 0.00 0.00 0.00 58 1015.9
20260505221019 73 156 9.0 22.0 0.00 0.00 0.00 58 1015.9
20260505220517 74 152 11.0 22.0 0.00 0.00 0.00 59 1015.5
20260505220014 74 196 12.0 21.0 0.00 0.00 0.00 61 1015.9
20260505215512 73 166 15.0 20.0 0.00 0.00 0.00 60 1015.5
20260505215010 74 172 12.0 20.0 0.00 0.00 0.00 60 1015.9
20260505214508 74 174 10.0 20.0 0.00 0.00 0.00 60 1015.9
20260505214004 74 169 12.0 22.0 0.00 0.00 0.00 59 1015.5
20260505213502 74 154 9.0 22.0 0.00 0.00 0.00 59 1015.5
20260505212958 75 186 9.0 18.0 0.00 0.00 0.00 59 1015.9
20260505212455 74 160 11.0 18.0 0.00 0.00 0.00 59 1015.9
20260505211951 74 136 8.0 17.0 0.00 0.00 0.00 59 1015.9
20260505211449 75 125 10.0 18.0 0.00 0.00 0.00 60 1015.9
20260505210945 74 189 11.0 18.0 0.00 0.00 0.00 60 1015.9
20260505210442 74 171 13.0 21.0 0.00 0.00 0.00 60 1015.9
20260505205939 74 130 9.0 21.0 0.00 0.00 0.00 60 1015.9
20260505205438 74 196 10.0 20.0 0.00 0.00 0.00 60 1015.9
20260505204934 74 168 11.0 20.0 0.00 0.00 0.00 59 1016.2
20260505204432 75 184 13.0 20.0 0.00 0.00 0.00 60 1015.9
20260505203929 75 126 10.0 20.0 0.00 0.00 0.00 61 1015.9
20260505203425 74 170 14.0 23.0 0.00 0.00 0.00 60 1015.9
20260505202921 74 167 13.0 23.0 0.00 0.00 0.00 60 1016.2
20260505202418 75 192 10.0 20.0 0.00 0.00 0.00 60 1016.2
20260505201915 75 184 8.0 17.0 0.00 0.00 0.00 60 1016.2
20260505201412 75 120 8.0 18.0 0.00 0.00 0.00 61 1016.2
20260505200910 75 128 9.0 18.0 0.00 0.00 0.00 61 1016.2
20260505200407 75 185 11.0 18.0 0.00 0.00 0.00 61 1016.6
20260505195902 75 165 14.0 20.0 0.00 0.00 0.00 61 1016.6
20260505195400 75 174 11.0 20.0 0.00 0.00 0.00 62 1016.6
20260505194857 75 165 14.0 20.0 0.00 0.00 0.00 61 1016.6
20260505194354 75 174 9.0 21.0 0.00 0.00 0.00 60 1016.6
20260505193849 75 181 16.0 23.0 0.00 0.00 0.00 60 1016.6
20260505193347 75 118 10.0 23.0 0.00 0.00 0.00 60 1016.9
20260505192844 75 180 14.0 20.0 0.00 0.00 0.00 61 1016.9
20260505192343 75 170 13.0 22.0 0.00 0.00 0.00 61 1016.9
20260505191840 75 189 14.0 22.0 0.00 0.00 0.00 62 1016.9
20260505191338 75 190 10.0 20.0 0.00 0.00 0.00 61 1017.2
20260505190834 76 193 14.0 20.0 0.00 0.00 0.00 61 1016.9
20260505190330 75 176 9.0 21.0 0.00 0.00 0.00 61 1017.2
20260505185826 75 205 12.0 21.0 0.00 0.00 0.00 61 1017.2